Home   Weather   Guangzhou   Past weeks

Flag for China Past Weather in Guangzhou, Guangdong, China — Yesterday and Last 2 Weeks

Now
70 °F

Clear.


Feels Like: 70 °F
Forecast: 67 / 76 °F
Wind: 3 mph from Southeast

Location: Canton Airport

Current Time: Feb 20, 2017 at 11:42:22 pm

Latest Report: Feb 20, 2017 at 11:00 pm


Visibility: 5 mi

Pressure: 29.95 "Hg

Humidity: 73%

Dew Point: 61 °F

Location of GuangzhouLocation

Past Weather in Guangzhou — Graph

°F

Guangzhou Temperature Yesterday

Maximum temperature yesterday: 75 °F (at 2:00 pm)
Minimum temperature yesterday: 64 °F (at 3:00 am)
Average temperature yesterday: 68 °F

High & Low Weather Summary for the Past Weeks

 TemperatureHumidityPressure
High84 °F (Feb 18, 2:30 pm)94% (Feb 7, 8:00 am)30.42 "Hg (Feb 7, 8:00 am)
Low45 °F (Feb 11, 5:00 am)19% (Feb 12, 6:00 pm)29.83 "Hg (Feb 20, 3:00 pm)
Average62 °F56%30.16 "Hg
* Reported Feb 5 10:00 pm — Feb 20 10:30 pm, Guangzhou, Weather by CustomWeather, © 2017

Note: Actual official high and low records may vary slightly from our data, if they occured in-between our weather recording intervals... More about our weather records

Advertising

Guangzhou Weather History for the Previous 24 Hours

Scroll right to see more
 ConditionsComfort  
Time TempWeatherWind HumidityBarometerVisibility
10:30 pm
Mon, Feb 20
72 °FClear.3 mph69%29.95 "Hg4 mi
10:00 pm72 °FClear.3 mph73%29.95 "Hg4 mi
9:30 pm72 °FClear.3 mph69%29.92 "Hg4 mi
9:00 pm72 °FClear.3 mph69%29.92 "Hg4 mi
8:30 pm73 °FPassing clouds.3 mph65%29.89 "Hg4 mi
8:00 pm73 °FPassing clouds.3 mph65%29.89 "Hg4 mi
7:30 pm75 °FPassing clouds.6 mph61%29.89 "Hg5 mi
7:00 pm75 °FPassing clouds.6 mph61%29.86 "Hg6 mi
6:30 pm75 °FPassing clouds.3 mph57%29.86 "Hg6 mi
6:00 pm77 °FScattered clouds.3 mph51%29.86 "HgN/A
5:30 pm79 °FScattered clouds.6 mph48%29.86 "HgN/A
5:00 pm79 °FScattered clouds.6 mph48%29.83 "HgN/A
4:30 pm81 °FScattered clouds.6 mph45%29.83 "HgN/A
4:00 pm82 °FScattered clouds.3 mph45%29.83 "HgN/A
3:30 pm82 °FScattered clouds.3 mph42%29.83 "HgN/A
3:00 pm81 °FScattered clouds.6 mph48%29.83 "HgN/A
2:30 pm81 °FScattered clouds.6 mph48%29.86 "HgN/A
2:00 pm79 °FScattered clouds.3 mph54%29.86 "Hg4 mi
1:30 pm79 °FScattered clouds.6 mph54%29.89 "Hg4 mi
1:00 pm79 °FScattered clouds.6 mph54%29.89 "Hg4 mi
12:30 pm77 °FScattered clouds.1 mph61%29.92 "Hg4 mi
12:00 pm75 °FScattered clouds.3 mph61%29.95 "Hg4 mi
11:30 am75 °FScattered clouds.3 mph65%29.95 "Hg3 mi
11:00 am73 °FScattered clouds.3 mph65%29.98 "Hg2 mi
10:30 am72 °FScattered clouds.3 mph69%29.98 "Hg2 mi
10:00 am68 °FFog.3 mph78%29.98 "Hg2 mi
9:30 am68 °FFog.1 mph78%29.98 "Hg2 mi
9:00 am68 °FLight rain. Fog.3 mph78%29.98 "Hg2 mi
8:30 am66 °FFog.1 mph83%29.98 "Hg2 mi
8:00 am66 °FFog.3 mph83%29.95 "Hg2 mi
7:30 am66 °FFog.1 mph83%29.95 "Hg2 mi
7:00 am64 °FFog.3 mph88%29.95 "Hg2 mi
6:30 am66 °FFog.3 mph83%29.92 "Hg3 mi
6:00 am64 °FFog.1 mph88%29.92 "Hg2 mi
5:30 am64 °FFog.1 mph88%29.92 "Hg2 mi
5:00 am64 °FFog.1 mph88%29.92 "Hg2 mi
4:30 am64 °FFog.1 mph88%29.92 "Hg2 mi
4:00 am64 °FFog.No wind88%29.92 "Hg2 mi
3:30 am64 °FFog.3 mph88%29.92 "Hg2 mi
3:00 am64 °FFog.No wind88%29.92 "Hg2 mi
2:30 am64 °FFog.No wind88%29.92 "Hg2 mi
2:00 am64 °FFog.3 mph88%29.92 "Hg2 mi
1:30 am64 °FFog.3 mph88%29.92 "Hg2 mi
1:00 am66 °FFog.3 mph83%29.95 "Hg2 mi
12:30 am66 °FFog.No wind83%29.92 "Hg2 mi
12:00 am66 °FFog.3 mph83%29.95 "Hg2 mi
11:30 pm
Sun, Feb 19
66 °FFog.3 mph83%29.95 "Hg2 mi
11:00 pm66 °FFog.3 mph78%29.95 "Hg2 mi
Weather by CustomWeather, © 2017

See weather overviewHow to use our weather pages